Location: Albany
(35.0170°S, 117.8920°E)
Time: 11:36:08
(UTC+08:00)

S-56A Canister/Altair - Pass Details

Date: 26 January 2021
Orbit: 631 x 2501 km, 38.9° (Epoch: 02 March)

Event Time Altitude Azimuth Distance (km) Brightness Sun altitude
Rises 10:33:25 0° 344° (NNW) 4,813 11.7 61.1°
Reaches altitude 10° 10:36:53 10° 356° (N) 4,100 11.5 61.8°
Maximum altitude 10:46:10 29° 50° (NE) 3,408 11.9 63.4°
Drops below altitude 10° 10:57:32 10° 101° (E) 5,117 12.1 65.3°
Sets 11:02:27 0° 110° (ESE) 6,193 12.3 66.1°
